Watson Lake Airport
CYQH : now visible

Airfield :











YOU CAN JOIN US ON...

 
LOGIN :

Register | Disclaimer

   EN    FR    IT 

 









Legend :    VFR   Marginal VFR   IFR   Intensive IFR   Very Intensive IFR
Visi :
Ceiling :
>= 8 km
>= 3000ft
5 to 8 km
1000 to 3000 ft
1500m to 5 km
500 to 1000 ft
800 to 1500m
200 to 500 ft
< 800m
< 200 ft
Symbols :   Thunderstorms  Fog  Heavy snow  Heavy precipitations  Wind > 20 kt






- Airport Elevation : 2255 ft
- IATA code : YQH


CYQH - Watson Lake

CURRENT METAR :
  • 030100Z 31002KT 40SM FEW055 M08/M24 A3024 RMK SC1 SLP300

EXPIRED METARs :
  • 030000Z 03003KT 20SM FEW055 M07/M23 A3026 RMK SC1 CLIMAT -7.3/-12.8/0.0 SLP304
  • 022300Z 30003KT 20SM FEW050 M08/M21 A3029 RMK SC2 SLP314

TAF TAF CYQH
Valid from the 03 at 00:00 until the 03 at 12:00 UTC


022338Z 0300/0312 VRB03KT P6SM FEW050 RMK NXT FCST BY 030600Z



MET'MAP, your aeronautical weather chart ! - Copyright ORBIFLY December 2007 - Disclaimer

ORBIFLY MET'MAP TEAM :

Programming & Development : Alexandra Zaïnal
Concept & original design : Baudouin d'Aumeries
Assistance for programming : Marc-Olivier Méhu
Technical & hardware support : Manuel Goepfert

Contact : metmap@orbifly.com




SOURCES & CREDITS :

   NOAA       Earth
Advisory